FW9737 Weather Reports


time (UTC)temp
C
wind
direction
speed
KPH
gust
KPH
rain 1hr
cm
rain 24hr
cm
rain mn
cm
humidity
%
barometer
mb
20260507174541 13 360 6.4 14.5 0.00 1.75 0.51 71 1011.2
20260507174016 13 360 8.0 14.5 0.00 1.75 0.51 71 1011.2
20260507173514 13 360 6.4 12.9 0.00 1.75 0.51 70 1011.3
20260507173049 13 360 3.2 12.9 0.00 1.75 0.51 72 1011.6
20260507172518 13 360 4.8 12.9 0.00 1.75 0.51 73 1011.5
20260507172017 13 360 3.2 8.0 0.00 1.75 0.51 68 1011.5
20260507171542 13 360 1.6 9.7 0.00 1.75 0.51 65 1011.2
20260507171016 13 360 3.2 9.7 0.03 1.75 0.51 63 1011.9
20260507170515 13 360 1.6 9.7 0.03 1.75 0.51 70 1011.7
20260507170034 13 360 3.2 9.7 0.03 1.75 0.51 68 1011.9
20260507165516 13 360 1.6 8.0 0.03 1.75 0.51 68 1011.9
20260507165015 13 360 1.6 4.8 0.03 1.75 0.51 68 1012.0
20260507164546 13 360 1.6 4.8 0.03 1.75 0.51 74 1012.2
20260507164017 12 0 0.0 4.8 0.03 1.75 0.51 74 1012.3
20260507163516 12 360 1.6 4.8 0.03 1.75 0.51 69 1012.7
20260507163034 12 360 1.6 4.8 0.03 1.75 0.51 69 1012.7
20260507162518 12 360 1.6 4.8 0.03 1.75 0.51 68 1012.7
20260507162016 12 360 1.6 6.4 0.03 1.75 0.51 70 1012.5
20260507161551 12 0 1.6 6.4 0.03 1.75 0.51 67 1012.7
20260507161016 13 360 3.2 6.4 0.00 1.73 0.48 67 1012.8
20260507160515 13 360 3.2 6.4 0.00 1.73 0.48 64 1013.0
20260507160037 13 360 1.6 6.4 0.00 1.73 0.48 67 1012.7
20260507155516 13 0 0.0 6.4 0.00 1.73 0.48 67 1012.7
20260507155017 12 360 1.6 8.0 0.00 1.73 0.48 71 1012.7
20260507154538 12 0 3.2 12.9 0.00 1.73 0.48 68 1012.7
20260507154015 12 360 4.8 12.9 0.00 1.73 0.48 70 1012.8
20260507153515 12 360 3.2 9.7 0.00 1.73 0.48 68 1012.8
20260507153032 12 360 4.8 9.7 0.00 1.73 0.48 69 1012.9
20260507152520 12 360 1.6 8.0 0.00 1.73 0.48 75 1012.8
20260507152015 12 360 1.6 8.0 0.00 1.73 0.48 73 1012.7
20260507151534 11 360 0.0 8.0 0.00 1.73 0.48 77 1012.8
20260507151016 11 360 1.6 8.0 0.00 1.73 0.48 76 1012.9
20260507150517 11 0 0.0 6.4 0.00 1.73 0.48 78 1013.0
20260507150042 11 360 1.6 6.4 0.00 1.73 0.48 76 1013.0
20260507145517 11 360 1.6 8.0 0.00 1.78 0.48 77 1013.0
20260507145019 11 0 0.0 8.0 0.00 1.78 0.48 79 1013.0
20260507144534 11 360 3.2 8.0 0.00 1.78 0.48 75 1013.2
20260507144017 11 0 0.0 6.4 0.00 1.78 0.48 78 1013.4
20260507143519 11 0 0.0 4.8 0.00 1.78 0.48 81 1013.4
20260507143032 11 360 3.2 4.8 0.00 1.78 0.48 79 1013.4
20260507142515 11 360 1.6 4.8 0.00 1.78 0.48 80 1013.5
20260507142015 11 0 0.0 6.4 0.00 1.78 0.48 81 1013.4
20260507141545 11 0 0.0 6.4 0.00 1.78 0.48 81 1013.7
20260507141017 11 360 1.6 6.4 0.00 1.78 0.48 79 1013.7
20260507140515 11 360 0.0 6.4 0.00 1.78 0.48 81 1013.7
20260507140038 11 360 3.2 8.0 0.00 1.78 0.48 80 1013.6
20260507135517 11 360 3.2 8.0 0.00 1.83 0.48 81 1013.7
20260507135021 11 360 3.2 8.0 0.00 1.83 0.48 81 1013.7
20260507134534 11 360 3.2 8.0 0.00 1.83 0.48 81 1013.6
20260507134016 11 360 3.2 9.7 0.00 1.83 0.48 81 1013.7
20260507133517 11 360 1.6 9.7 0.00 1.83 0.48 82 1013.7
20260507133032 11 360 4.8 9.7 0.00 1.83 0.48 81 1013.8
20260507132519 11 360 3.2 12.9 0.00 1.83 0.48 83 1013.7
20260507132015 11 360 4.8 14.5 0.00 1.83 0.48 81 1013.6
20260507131538 11 360 4.8 14.5 0.00 1.83 0.48 82 1013.6
20260507131016 11 360 4.8 12.9 0.00 1.83 0.48 83 1013.7
20260507130517 11 360 4.8 12.9 0.00 1.83 0.48 84 1013.7
20260507130034 11 360 4.8 9.7 0.00 1.83 0.48 85 1013.6
20260507125515 11 360 3.2 12.9 0.00 2.06 0.48 86 1013.7
20260507125017 11 360 4.8 12.9 0.00 2.06 0.48 88 1013.6
20260507124538 11 360 3.2 9.7 0.00 2.06 0.48 89 1013.6
20260507124015 11 360 6.4 9.7 0.00 2.06 0.48 90 1013.7
20260507123518 11 360 3.2 8.0 0.00 2.06 0.48 91 1013.5
20260507123039 11 360 1.6 8.0 0.00 2.06 0.48 92 1013.5
20260507122515 11 360 0.0 6.4 0.00 2.06 0.48 92 1013.3
20260507122015 11 0 0.0 6.4 0.00 2.06 0.48 92 1013.2
20260507121541 11 360 1.6 6.4 0.00 2.06 0.48 92 1013.3
20260507121016 11 360 1.6 4.8 0.00 2.06 0.48 92 1013.3
20260507120516 11 0 0.0 6.4 0.00 2.06 0.48 93 1013.4
20260507120042 11 360 1.6 12.9 0.00 2.06 0.48 93 1013.2
20260507115516 11 360 4.8 12.9 0.00 2.06 0.48 93 1013.1
20260507115016 11 360 3.2 12.9 0.00 2.06 0.48 93 1012.9
20260507114532 11 360 4.8 12.9 0.00 2.06 0.48 93 1012.9
20260507114015 11 360 4.8 8.0 0.00 2.06 0.48 94 1012.8
20260507113515 11 360 1.6 4.8 0.00 2.06 0.48 94 1013.0
20260507113040 11 360 0.0 6.4 0.00 2.06 0.48 94 1013.2
20260507112516 11 0 0.0 6.4 0.00 2.06 0.48 94 1013.0
20260507112018 11 360 3.2 6.4 0.00 2.06 0.48 94 1012.8
20260507111535 11 0 0.0 3.2 0.00 2.06 0.48 94 1012.9
20260507111015 11 0 0.0 3.2 0.00 2.06 0.48 94 1012.7
20260507110515 11 0 1.6 3.2 0.00 2.06 0.48 94 1012.7
20260507110037 11 0 0.0 0.0 0.00 2.06 0.48 93 1012.8
20260507105515 11 0 0.0 0.0 0.00 2.06 0.48 93 1012.9
20260507105017 11 0 0.0 1.6 0.00 2.06 0.48 93 1013.0
20260507104532 11 0 0.0 4.8 0.00 2.06 0.48 93 1012.9
20260507104017 11 0 0.0 6.4 0.00 2.06 0.48 93 1012.9
20260507103518 11 0 1.6 6.4 0.00 2.06 0.48 93 1012.8
20260507103033 11 360 1.6 4.8 0.00 2.06 0.48 94 1012.5
20260507102515 11 0 0.0 4.8 0.00 2.06 0.48 94 1012.4
20260507102016 11 360 0.0 3.2 0.00 2.06 0.48 93 1012.5
20260507101532 11 0 0.0 0.0 0.00 2.06 0.48 94 1012.7
20260507101015 11 0 0.0 0.0 0.00 2.06 0.48 94 1012.6
20260507100517 11 0 0.0 0.0 0.00 2.06 0.48 93 1012.5
20260507100039 11 0 0.0 3.2 0.00 2.06 0.48 93 1012.4
20260507095517 11 0 0.0 3.2 0.00 2.06 0.48 93 1012.1
20260507095016 11 0 0.0 3.2 0.00 2.06 0.48 93 1012.2
20260507094532 11 0 0.0 3.2 0.00 2.06 0.48 93 1012.1
20260507094015 11 0 0.0 3.2 0.00 2.06 0.48 93 1012.1
20260507093515 11 0 0.0 3.2 0.00 2.06 0.48 93 1012.1
20260507093030 11 0 0.0 3.2 0.00 2.06 0.48 93 1012.0
20260507092515 11 0 0.0 3.2 0.00 2.06 0.48 93 1012.1
20260507092014 11 0 0.0 3.2 0.00 2.06 0.48 93 1012.2
20260507091532 11 0 0.0 3.2 0.00 2.06 0.48 93 1012.1
20260507091017 11 360 0.0 3.2 0.00 2.06 0.48 93 1012.0
20260507090514 11 0 0.0 1.6 0.00 2.06 0.48 93 1012.0
20260507090033 11 0 0.0 1.6 0.00 2.06 0.48 93 1011.9
20260507085518 11 0 0.0 1.6 0.00 2.06 0.48 93 1011.8
20260507085018 11 0 0.0 6.4 0.00 2.06 0.48 93 1011.7
20260507084535 11 0 0.0 6.4 0.00 2.06 0.48 93 1011.9
20260507084017 11 360 3.2 6.4 0.00 2.06 0.48 93 1011.9
20260507083515 11 360 1.6 9.7 0.00 2.06 0.48 93 1011.9
20260507083035 11 360 3.2 9.7 0.00 2.06 0.48 92 1012.0
20260507082518 11 360 1.6 6.4 0.00 2.06 0.48 92 1012.0
20260507082015 11 360 1.6 6.4 0.00 2.06 0.48 92 1011.9
20260507081544 11 360 3.2 6.4 0.00 2.06 0.48 92 1011.9
20260507081015 11 360 1.6 6.4 0.00 2.06 0.48 92 1012.0
20260507080515 11 0 0.0 6.4 0.00 2.06 0.48 92 1012.0
20260507080036 11 360 0.0 8.0 0.00 2.06 0.48 92 1011.9
20260507075517 11 360 1.6 14.5 0.00 2.06 0.48 92 1012.1
20260507075015 11 360 4.8 19.3 0.00 2.06 0.48 92 1011.9
20260507074535 11 360 4.8 19.3 0.00 2.06 0.48 92 1011.7
20260507074014 11 360 8.0 16.1 0.00 2.06 0.48 92 1011.5
20260507073517 11 360 3.2 19.3 0.03 2.06 0.48 92 1011.3
20260507073032 11 360 6.4 19.3 0.03 2.06 0.48 92 1011.2
20260507072515 11 360 9.7 16.1 0.03 2.06 0.48 92 1011.4
20260507072014 11 360 6.4 16.1 0.03 2.06 0.48 92 1011.4
20260507071537 11 360 6.4 14.5 0.03 2.06 0.48 92 1011.3
20260507071017 11 360 8.0 14.5 0.03 2.06 0.48 92 1011.3
20260507070518 11 360 3.2 19.3 0.03 2.06 0.48 92 1011.2
20260507070039 11 360 8.0 24.1 0.03 2.06 0.48 92 1011.3
20260507065515 11 360 8.0 24.1 0.03 2.06 0.48 92 1011.2
20260507065015 12 360 8.0 24.1 0.03 2.06 0.48 92 1011.3
20260507064541 12 360 9.7 24.1 0.03 2.06 0.48 92 1011.3
20260507064015 12 360 8.0 19.3 0.03 2.06 0.48 92 1011.4
20260507063515 12 360 9.7 17.7 0.00 2.03 0.46 92 1011.6
20260507063040 12 360 8.0 19.3 0.00 2.03 0.46 92 1011.4
20260507062517 12 360 9.7 19.3 0.00 2.03 0.46 93 1011.3
20260507062016 12 360 9.7 22.5 0.00 2.03 0.46 93 1011.6
20260507061538 12 360 8.0 22.5 0.00 2.03 0.46 93 1011.5
20260507061015 12 360 8.0 17.7 0.00 2.03 0.46 94 1011.4
20260507060514 12 360 9.7 17.7 0.03 2.03 0.46 94 1011.8
20260507060035 12 360 6.4 17.7 0.03 2.03 0.46 94 1011.7
20260507055518 12 360 8.0 19.3 0.05 2.03 0.46 94 1011.7
20260507055016 12 360 8.0 20.9 0.05 2.03 0.46 94 1011.6
20260507054606 13 360 11.3 20.9 0.08 2.03 0.46 94 1011.4
20260507054017 13 360 11.3 19.3 0.15 2.03 0.46 94 1011.5
20260507053518 13 360 4.8 16.1 0.30 2.03 0.46 94 1011.3
20260507053036 13 360 4.8 16.1 0.36 2.03 0.46 94 1011.2
20260507052517 13 360 9.7 16.1 0.41 2.03 0.46 94 1011.0
20260507052020 13 360 4.8 12.9 0.41 2.03 0.46 94 1011.1
20260507051532 13 360 4.8 12.9 0.41 2.03 0.46 94 1011.1
20260507051019 13 360 6.4 12.9 0.41 2.03 0.46 94 1011.2
20260507050517 13 360 1.6 8.0 0.41 2.01 0.43 94 1010.9
20260507050036 13 360 0.0 14.5 0.41 2.01 0.43 94 1011.1
20260507045517 13 0 4.8 14.5 0.41 1.98 0.41 94 1011.1
20260507045016 13 360 4.8 17.7 0.51 1.98 0.41 94 1011.1
20260507044534 13 360 8.0 17.7 0.64 1.93 0.36 93 1011.4
20260507044013 14 360 9.7 17.7 0.79 1.83 0.25 93 1010.4
20260507043517 14 360 1.6 8.0 0.99 1.73 0.15 94 1010.7
20260507043034 14 0 3.2 9.7 1.17 1.68 0.10 93 1011.4
20260507042517 14 360 4.8 9.7 1.19 1.63 0.05 93 1011.7
20260507042016 14 0 3.2 9.7 1.22 1.63 0.05 93 1011.4
20260507041542 14 360 1.6 6.4 1.22 1.63 0.05 93 1011.4
20260507041017 14 360 0.0 4.8 1.22 1.63 0.05 93 1011.2
20260507040518 15 0 0.0 16.1 1.19 1.60 0.03 93 1011.4
20260507040034 15 360 4.8 16.1 1.17 1.57 0.00 92 1011.5
20260507035517 15 360 6.4 14.5 1.17 1.57 1.57 92 1011.7
20260507035017 15 360 4.8 14.5 1.04 1.45 1.45 92 1011.4
20260507034541 15 360 4.8 17.7 0.86 1.27 1.27 91 1011.7
20260507034017 15 360 8.0 17.7 0.61 1.02 1.02 90 1011.4
20260507033521 16 360 6.4 19.3 0.28 0.69 0.69 90 1011.2
20260507033029 16 360 8.0 19.3 0.08 0.48 0.48 90 1011.2
20260507032516 16 360 8.0 16.1 0.00 0.41 0.41 90 1010.7
20260507032017 16 360 6.4 14.5 0.00 0.41 0.41 90 1010.5
20260507031532 16 360 8.0 14.5 0.00 0.41 0.41 90 1010.7
20260507031017 16 360 4.8 12.9 0.00 0.41 0.41 90 1010.7
20260507030517 16 360 3.2 12.9 0.00 0.41 0.41 90 1010.6
20260507030033 16 360 4.8 12.9 0.00 0.41 0.41 90 1010.9
20260507025516 16 360 4.8 12.9 0.00 0.41 0.41 91 1011.0
20260507025016 16 360 4.8 12.9 0.00 0.41 0.41 91 1011.2
20260507024534 17 360 3.2 14.5 0.00 0.41 0.41 91 1010.9
20260507024053 17 360 6.4 14.5 0.00 0.41 0.41 91 1010.7
20260507024015 17 360 6.4 14.5 0.00 0.41 0.41 91 1010.7
20260507023515 17 360 4.8 12.9 0.00 0.41 0.41 91 1010.4
20260507023032 17 360 1.6 12.9 0.00 0.41 0.41 92 1010.1
20260507022516 17 360 3.2 12.9 0.00 0.41 0.41 92 1010.6
20260507022015 17 360 6.4 12.9 0.00 0.41 0.41 92 1010.6
20260507021534 17 360 4.8 9.7 0.00 0.41 0.41 92 1010.3
20260507021019 17 360 3.2 9.7 0.00 0.41 0.41 92 1010.4
20260507020517 17 360 4.8 8.0 0.03 0.41 0.41 92 1010.5
20260507020034 17 360 4.8 8.0 0.08 0.41 0.41 92 1010.4
20260507015516 17 360 1.6 9.7 0.08 0.41 0.41 92 1010.0
20260507015015 17 0 1.6 9.7 0.08 0.41 0.41 92 1009.6
20260507014533 18 0 0.0 8.0 0.08 0.41 0.41 92 1009.6
20260507014015 18 360 3.2 9.7 0.08 0.41 0.41 91 1009.9
20260507013516 18 360 4.8 9.7 0.08 0.41 0.41 91 1010.2
20260507013036 18 360 3.2 8.0 0.08 0.41 0.41 91 1010.3
20260507012517 18 360 3.2 8.0 0.08 0.41 0.41 90 1010.4
20260507012016 18 360 0.0 6.4 0.08 0.41 0.41 89 1010.3
20260507011535 18 360 3.2 6.4 0.08 0.41 0.41 88 1010.4
20260507011015 18 360 3.2 6.4 0.08 0.41 0.41 88 1010.6
20260507010519 18 360 1.6 3.2 0.05 0.38 0.38 87 1010.6
20260507010038 18 0 0.0 0.0 0.00 0.33 0.33 86 1010.5
20260507005518 18 0 0.0 0.0 0.00 0.33 0.33 86 1010.3
20260507005017 18 0 0.0 0.0 0.00 0.33 0.33 86 1010.3
20260507004531 18 0 0.0 0.0 0.00 0.33 0.33 85 1010.0
20260507004015 19 0 0.0 0.0 0.00 0.33 0.33 85 1010.3
20260507003517 19 0 0.0 3.2 0.00 0.33 0.33 84 1010.1
20260507003037 19 0 0.0 4.8 0.00 0.33 0.33 83 1009.9
20260507002515 19 0 0.0 4.8 0.00 0.33 0.33 83 1009.7
20260507002015 20 360 1.6 4.8 0.00 0.33 0.33 82 1009.3
20260507001547 20 0 1.6 3.2 0.00 0.33 0.33 81 1009.4
20260507001014 20 0 0.0 3.2 0.00 0.33 0.33 80 1009.5
20260507000515 20 0 0.0 3.2 0.00 0.33 0.33 80 1009.5
20260507000034 20 360 0.0 9.7 0.00 0.33 0.33 80 1009.5
20260506235515 20 0 0.0 9.7 0.00 0.33 0.33 80 1009.6
20260506235021 20 360 3.2 12.9 0.00 0.33 0.33 79 1009.5
20260506234545 20 360 3.2 12.9 0.00 0.33 0.33 79 1009.3
20260506234021 20 360 3.2 14.5 0.00 0.33 0.33 79 1009.3
20260506233516 20 360 3.2 14.5 0.00 0.33 0.33 78 1009.2
20260506233033 20 360 3.2 12.9 0.00 0.33 0.33 78 1009.1
20260506232515 21 360 1.6 12.9 0.00 0.33 0.33 78 1008.9
20260506232016 21 360 4.8 14.5 0.00 0.33 0.33 78 1008.9
20260506231538 21 360 3.2 14.5 0.00 0.33 0.33 77 1008.8
20260506231014 21 360 4.8 14.5 0.00 0.33 0.33 77 1008.7
20260506230516 21 360 6.4 14.5 0.00 0.33 0.33 77 1008.9
20260506230035 21 360 1.6 20.9 0.00 0.33 0.33 77 1008.9
20260506225515 21 360 8.0 20.9 0.00 0.33 0.33 77 1008.7
20260506225015 21 360 3.2 9.7 0.00 0.33 0.33 77 1009.0
20260506224546 21 360 1.6 16.1 0.00 0.33 0.33 77 1009.0
20260506224018 21 360 3.2 20.9 0.00 0.33 0.33 77 1008.9
20260506223516 21 360 8.0 20.9 0.00 0.33 0.33 76 1008.8
20260506223034 21 360 4.8 14.5 0.00 0.33 0.33 77 1008.8
20260506222516 21 360 3.2 14.5 0.00 0.33 0.33 77 1008.8
20260506222018 21 360 4.8 17.7 0.00 0.33 0.33 77 1008.9
20260506221536 21 360 8.0 17.7 0.00 0.33 0.33 76 1008.9
20260506221017 21 360 4.8 17.7 0.00 0.33 0.33 76 1008.9
20260506220515 21 360 4.8 20.9 0.00 0.33 0.33 75 1009.0
20260506220040 21 0 6.4 20.9 0.00 0.33 0.33 76 1008.8
20260506215517 21 360 6.4 12.9 0.00 0.33 0.33 76 1008.7
20260506215017 21 360 3.2 16.1 0.00 0.33 0.33 77 1008.7
20260506214535 21 360 3.2 16.1 0.00 0.33 0.33 77 1008.8
20260506214016 21 360 4.8 16.1 0.00 0.33 0.33 77 1008.7
20260506213515 21 360 3.2 12.9 0.00 0.33 0.33 78 1008.9
20260506213031 21 360 3.2 12.9 0.00 0.33 0.33 78 1008.8
20260506212520 20 360 3.2 14.5 0.00 0.33 0.33 79 1008.9
20260506212015 20 360 1.6 20.9 0.00 0.33 0.33 79 1008.9
20260506211536 20 360 4.8 20.9 0.00 0.33 0.33 78 1008.8
20260506211016 20 360 8.0 17.7 0.00 0.33 0.33 79 1008.7
20260506210515 20 360 8.0 16.1 0.00 0.33 0.33 78 1008.6
20260506210035 20 360 3.2 19.3 0.00 0.33 0.33 79 1008.6
20260506205515 20 360 8.0 19.3 0.00 0.33 0.33 78 1008.6
20260506205015 20 360 8.0 17.7 0.00 0.33 0.33 79 1008.4
20260506204536 20 360 6.4 19.3 0.00 0.33 0.33 79 1008.5
20260506204015 20 360 8.0 19.3 0.00 0.33 0.33 79 1008.5
20260506203516 20 360 8.0 19.3 0.00 0.33 0.33 79 1008.3
20260506203032 20 360 6.4 19.3 0.00 0.33 0.33 80 1008.3
20260506202518 20 360 4.8 14.5 0.00 0.33 0.33 80 1008.3
20260506202015 20 360 4.8 16.1 0.00 0.33 0.33 80 1008.5
20260506201532 20 360 6.4 16.1 0.00 0.33 0.33 81 1008.4
20260506201017 20 360 4.8 17.7 0.00 0.33 0.33 80 1008.5
20260506200517 20 360 8.0 17.7 0.00 0.33 0.33 80 1008.5
20260506200038 20 360 6.4 17.7 0.00 0.33 0.33 80 1008.6
20260506195515 20 360 4.8 19.3 0.00 0.33 0.33 80 1008.6
20260506195016 20 360 4.8 19.3 0.00 0.33 0.33 82 1008.6
20260506194538 20 360 4.8 22.5 0.00 0.33 0.33 81 1008.7
20260506194018 20 360 8.0 22.5 0.00 0.33 0.33 80 1008.7
20260506193516 20 360 9.7 22.5 0.00 0.33 0.33 82 1008.8
20260506193034 20 360 4.8 22.5 0.00 0.33 0.33 82 1008.7
20260506192515 19 360 6.4 22.5 0.00 0.33 0.33 82 1008.8
20260506192016 19 360 8.0 22.5 0.00 0.33 0.33 82 1008.9
20260506191535 19 360 3.2 17.7 0.00 0.33 0.33 83 1008.9
20260506191015 19 360 4.8 17.7 0.00 0.33 0.33 83 1009.2
20260506190516 18 360 6.4 17.7 0.00 0.33 0.33 83 1009.0
20260506190031 18 360 6.4 24.1 0.00 0.33 0.33 83 1009.4
20260506185515 18 360 9.7 24.1 0.00 0.33 0.33 83 1009.1
20260506185015 18 360 6.4 22.5 0.00 0.33 0.33 83 1009.4
20260506184538 18 360 6.4 17.7 0.00 0.33 0.33 83 1009.4
20260506184015 18 360 4.8 27.4 0.00 0.33 0.33 84 1009.2
20260506183515 18 360 8.0 27.4 0.00 0.33 0.33 83 1009.6
20260506183038 18 360 4.8 19.3 0.00 0.33 0.33 84 1009.7
20260506182516 18 360 6.4 20.9 0.00 0.33 0.33 84 1009.6
20260506182019 18 360 8.0 20.9 0.00 0.33 0.33 84 1009.6
20260506181543 18 360 8.0 19.3 0.00 0.33 0.33 83 1009.7
20260506181016 18 360 8.0 22.5 0.00 0.33 0.33 84 1009.5
20260506180518 18 360 4.8 22.5 0.00 0.33 0.33 84 1009.5
20260506180034 18 360 3.2 16.1 0.00 0.33 0.33 85 1009.6
20260506175516 18 360 6.4 17.7 0.00 0.33 0.33 85 1009.7
20260506175019 18 360 8.0 20.9 0.00 0.33 0.33 85 1009.4